Location: Sihaung
(22.8641°N, 94.0549°E)
Time: 17:02:32
(UTC+00:00)

Delta 168 - Pass Details

Date: 03 March 2021
Orbit: 394 x 2047 km, 25.3° (Epoch: 12 April)

Event Time Altitude Azimuth Distance (km) Brightness Sun altitude
Rises 12:37:21 0° 241° (WSW) 4,745 8.8 -12.1°
Reaches altitude 10° 12:41:07 10° 238° (WSW) 3,492 7.8 -13.0°
Maximum altitude 12:49:25 54° 163° (SSE) 1,214 4.4 -14.9°
Enters shadow 12:52:57 24° 95° (E) 1,710 4.7 -15.7°
